,

(GMT )
Montijo

Weather History for LPMT - February, 2013

Change the Weather History Date:

Tuesday, February 26, 2013

  Actual Average Record
Temperature  
Mean Temperature 48 °F -  
Max Temperature 58 °F - - ()
Min Temperature 39 °F - - ()
Degree Days  
Heating Degree Days 16    
Moisture  
Dew Point 37 °F    
Average Humidity 68    
Maximum Humidity 87    
Minimum Humidity 38    
Precipitation  
Precipitation 0.00 in - - ()
Sea Level Pressure  
Sea Level Pressure 30.16 in    
Wind  
Wind Speed 3 mph ()    
Max Wind Speed 9 mph    
Max Gust Speed -    
Visibility 12.0 miles    
Events      
T = Trace of Precipitation, MM = Missing Value Source: Averaged Metar Reports

Daily Weather History Graph

Daily Weather History Graph

Search for Another Location

Airport or City:

Trip Planner

Search our weather history database for the weather conditions in past years. The results will help you decide how hot, cold, wet, or windy it might be!

Date:

Astronomy

Feb. 26, 2013 Rise Set
Actual Time 7:12 AM WET 6:25 PM WET
Civil Twilight 6:45 AM WET 6:52 PM WET
Nautical Twilight 6:15 AM WET 7:23 PM WET
Astronomical Twilight 5:44 AM WET 7:54 PM WET
Moon 7:27 PM WET (2/26) 7:08 AM WET (2/26)
Length of Visible Light 12h 06m
Length of Day
11h 13m
Full, 100% of the Moon is Illuminated
Feb 26
Full
Mar 4
Last Quarter
Mar 11
New
Mar 19
First Quarter
Mar 27
Full

Hourly Weather History & Observations

Time (WET) Temp. Dew Point Humidity Pressure Visibility Wind Dir Wind Speed Gust Speed Precip Events Conditions
12:00 AM 43 °F 37 °F 72% 30.19 in 12 mi Calm Calm - -  
12:00 AM 42.8 °F 37.4 °F 81% 30.18 in - North - - N/A   Clear
1:00 AM 42.8 °F 37.4 °F 81% 30.18 in - North - - N/A   Clear
2:00 AM 41.0 °F 37.4 °F 87% 30.18 in - North - - N/A   Clear
3:00 AM 41.0 °F 37.4 °F 87% 30.18 in - North - - N/A   Clear
4:00 AM 41.0 °F 37.4 °F 87% 30.18 in - North - - N/A   Clear
5:00 AM 41.0 °F 37.4 °F 87% 30.21 in - North - - N/A   Clear
6:00 AM 40 °F 36 °F 82% 30.19 in 12 mi NNE 6.7 mph - -  
6:00 AM 39.2 °F 35.6 °F 87% 30.18 in - North - - N/A   Clear
7:00 AM 39.2 °F 35.6 °F 87% 30.18 in - North - - N/A   Clear
8:00 AM 39.2 °F 35.6 °F 87% 30.18 in - North - - N/A   Clear
9:00 AM 39.2 °F 33.8 °F 81% 30.21 in - North - - N/A   Clear
10:00 AM 42.8 °F 33.8 °F 70% 30.21 in - North - - N/A   Clear
11:00 AM 48.2 °F 35.6 °F 62% 30.21 in - North - - N/A   Clear
12:00 PM 53 °F 40 °F 50% 30.20 in 12 mi NNE 4.5 mph - -  
1:00 PM 55.4 °F 41.0 °F 58% 30.18 in - North - - N/A   Clear
2:00 PM 57.2 °F 33.8 °F 41% 30.15 in - North - - N/A   Clear
3:00 PM 57.2 °F 32.0 °F 38% 30.15 in - North - - N/A   Clear
4:00 PM 59.0 °F 35.6 °F 42% 30.12 in - North - - N/A   Clear
5:00 PM 57.2 °F 35.6 °F 44% 30.12 in - North - - N/A   Clear
6:00 PM 56 °F 39 °F 41% 30.11 in 12 mi NNE 8.9 mph - -  
6:00 PM 55.4 °F 39.2 °F 54% 30.09 in - North - - N/A   Clear
7:00 PM 53.6 °F 39.2 °F 58% 30.09 in - North - - N/A   Clear
8:00 PM 50.0 °F 39.2 °F 66% 30.12 in - North - - N/A   Clear
9:00 PM 48.2 °F 37.4 °F 66% 30.09 in - North - - N/A   Clear
10:00 PM 46.4 °F 37.4 °F 71% 30.09 in - North - - N/A   Clear
11:00 PM 44.6 °F 35.6 °F 71% 30.09 in - North - - N/A   Clear